Terminal Aerodrome Forecast
Issued by NWS

Home | Current Version | Previous Version | Graphics & Text | Print | Product List | Glossary On
Versions: 1 2 3 4 5 6 7 8 9 10 11 12 13 14 15 16 17 18 19 20 21 22 23 24 25 26
000
FTUS43 KABR 302056 AAA
TAFMBG
TAF AMD
KMBG 302056Z 3021/0118 08008KT 4SM -RA BR VCSH BKN120
     FM302200 13006KT P6SM OVC100
     FM010500 10005KT P6SM VCTS OVC070CB
     FM010700 12005KT P6SM VCSH OVC070
     FM010900 12005KT P6SM BKN100=

USA.gov is the U.S. government's official web portal to all federal, state and local government web resources and services.